Location: Great Snoring
(52.8667°N, 0.8833°E)
Time: 19:43:58
(UTC+00:00)

USA 229 DEB - Pass Details

Date: 19 May 2025
Orbit: 872 x 1339 km, 63.4° (Epoch: 20 June)

Event Time Altitude Azimuth Distance (km) Brightness Sun altitude
Exits shadow 23:20:43 26° 176° (S) 1,770 4.2 -16.8°
Maximum altitude 23:23:43 44° 121° (ESE) 1,339 3.9 -16.9°
Drops below altitude 10° 23:30:04 10° 53° (NE) 2,904 6.4 -17.0°
Sets 23:32:59 0° 47° (NE) 3,938 7.2 -17.0°
